Regional Weather Roundup
Issued by NWS

Home | Current Version | Previous Version | Text Only | Print | Product List | Glossary On
Versions: 1 2 3 4 5 6 7 8 9 10 11 12 13 14 15 16 17 18 19 20 21 22 23 24 25 26 27
000
ASUS44 KJAN 231310
RWRMS

MISSISSIPPI HOURLY WEATHER ROUNDUP
NATIONAL WEATHER SERVICE JACKSON MS
800 AM CDT THU MAR 23 2017

NOTE: "FAIR: INDICATES FEW OR NO CLOUDS BELOW 12,000 FEET WITH NO
SIGNIFICANT WEATHER AND/OR OBSTRUCTIONS TO VISIBILITY.

MSZ001>002-007>008-010>013-018>021-025>028-034>036-231400-
NORTHWEST MISSISSIPPI

CITY           SKY/WX    TMP DP  RH WIND       PRES   REMARKS
BATESVILLE     FAIR      46  39  75 CALM      30.27S
CLARKSDALE     CLOUDY    52  34  50 E7        30.26R
CLEVELAND      PTSUNNY   55  36  50 E5        30.24R
GREENWOOD      SUNNY     54  32  43 E8        30.24S
GREENVILLE     PTSUNNY   56  37  49 SE8       30.23R
OLIVE BRANCH   PTSUNNY  N/A N/A N/A CALM      30.27R
OXFORD         FAIR      48  28  46 SE3       30.29R
TUNICA         MOSUNNY   48  36  61 CALM      30.27S
WINONA         FAIR      50  35  57 CALM      30.25S
$$

MSZ003>006-009-014>017-022>024-029>033-037>039-231400-
NORTHEAST MISSISSIPPI

CITY           SKY/WX    TMP DP  RH WIND       PRES   REMARKS
COLUMBUS AFB   CLOUDY    51  36  56 SE5       30.26S
CORINTH        CLOUDY    46  32  57 CALM      30.29R
STARKVILLE     CLOUDY    48  39  71 CALM      30.28S
TUPELO         CLOUDY    51  30  44 N3        30.28R
$$

MSZ040-058-231400-
CENTRAL MISSISSIPPI

CITY           SKY/WX    TMP DP  RH WIND       PRES   REMARKS
JACKSON INTL   SUNNY     58  45  62 CALM      30.22S
JACKSON HAWKNS SUNNY     58  44  60 E6        30.23R
MADISON        FAIR      55  43  62 CALM      30.23R
MERIDIAN KEY   SUNNY     56  44  64 N3        30.26R
MERIDIAN NAS   SUNNY     53  40  61 CALM      30.27R
RAYMOND        FAIR      59  48  67 E8        30.22R
VICKSBURG VKS  SUNNY     61  48  63 SE7G14    30.19R
$$

MSZ059>079-231400-
SOUTH MISSISSIPPI

CITY           SKY/WX    TMP DP  RH WIND       PRES   REMARKS
BROOKHAVEN     FAIR      59  54  82 CALM      30.24R
COLUMBIA       FAIR      59 N/A N/A NE3       30.26R
HATTIESBURG    SUNNY     56  51  84 CALM      30.24R
MCCOMB         SUNNY     60  49  66 CALM      30.22R
NATCHEZ        SUNNY     63  48  59 SE5       30.21R
PINE BELT      SUNNY     57  45  62 NE6       30.25R
$$

MSZ080>082-231400-
COASTAL MISSISSIPPI

CITY           SKY/WX    TMP DP  RH WIND       PRES   REMARKS
BAY ST LOUIS   SUNNY     61  48  63 E6        30.22R
BILOXI         SUNNY     61  53  73 NE6       30.21R
PASCAGOULA     SUNNY     59  53  80 N3        30.21R
GULFPORT       SUNNY     64  51  62 NE6       30.21R
$$

LAZ007>009-015>016-023>026-231400-
NORTHEAST LOUISIANA

CITY           SKY/WX    TMP DP  RH WIND       PRES   REMARKS
BASTROP        FAIR      57  53  86 CALM      30.22R
TALLULAH/VBURG SUNNY     60  49  66 SE8       30.21R
VIDALIA        FAIR      60  53  77 CALM      30.20R
$$




USA.gov is the U.S. government's official web portal to all federal, state and local government web resources and services.